Regional Weather Roundup
Issued by NWS Cleveland, OH

Home | Current Version | Previous Version | Graphics & Text | Print | Product List | Glossary On
Versions: 1 2 3 4 5 6 7 8 9 10 11 12 13 14 15 16 17 18 19 20 21 22 23 24 25 26 27 28 29 30 31 32 33 34 35 36 37 38 39 40 41 42 43 44 45 46 47 48 49 50
161
ASUS41 KCLE 131310
RWRCLE
OHIO REGIONAL WEATHER ROUNDUP
NATIONAL WEATHER SERVICE WILMINGTON, OH
800 AM EST SAT FEB 13 2016

NOTE: "FAIR" INDICATES FEW OR NO CLOUDS BELOW 12,000 FEET WITH NO
SIGNIFICANT WEATHER AND/OR OBSTRUCTIONS TO VISIBILITY.

OHZ001>008-015>018-024>027-034-035-043-044-131400-
   NORTHWEST OHIO

CITY           SKY/WX    TMP DP  RH WIND       PRES   REMARKS
DEFIANCE       FAIR       5  -6  60 VRB5      30.47R WCI  -4
FINDLAY        FAIR       3  -6  66 W6        30.43R WCI  -8
TOLEDO EXPRESS FAIR       2  -6  69 W8        30.43R WCI -12
TOLEDO EXEC    FAIR       5  -6  60 W8        30.45R WCI  -8
LIMA           FAIR       3  -4  72 W9        30.43R WCI -12
$$

OHZ009>014-019>023-028>033-038-089-131400-
   NORTHEAST OHIO

CITY           SKY/WX    TMP DP  RH WIND       PRES   REMARKS
CLE-HOPKINS    CLOUDY     8  -4  58 NW13      30.39R WCI  -8
CLE-LAKEFRONT  FLURRIES  11   1  64 NW23G33   30.37R WCI  -9
CUY CO. ARPT   MOCLDY     9 N/A N/A N16G30    30.34R WCI  -9
LORAIN-ELYRIA  CLOUDY     7  -5  57 N10       30.39R WCI  -8
ASHTABULA      LGT SNOW   7   3  84 NW10G20   30.29R FOG     WCI  -8
AKRON-CANTON   MOCLDY     2  -7  66 NW12      30.31R WCI -15
WOOSTER        LGT SNOW   3  -4  72 NW13      30.35R WCI -14
MANSFIELD      FAIR       1  -9  62 W7        30.35R WCI -12
YOUNGSTOWN     LGT SNOW   6   0  76 W8G21     30.26R WCI  -7
$$

OHZ042-051>053-060>062-070>072-077>081-131400-
  SOUTHWEST OHIO

CITY           SKY/WX    TMP DP  RH WIND       PRES   REMARKS
CINC-COVINGTON CLOUDY    11   2  67 NW10      30.48R WCI  -3
CINC-LUNKEN    MOCLDY    12   3  67 NW12      30.54R WCI  -2
HAMILTON       FAIR      11  -1  58 NW8       30.53R WCI  -1
DAYTON         FAIR       3  -6  66 NW7       30.46R WCI  -9
WRIGHT-PAT AFB CLEAR      6  -6  55 NW7       30.47R WCI  -5
DAYTON GENERAL FAIR       7  -7  52 N8        30.46R WCI  -6
WILMINGTON     FAIR       7  -5  57 NW6       30.44R WCI  -3
$$

OHZ036-037-039>041-045>050-054>059-063>069-073>076-082>088-131400-
  CENTRAL AND SOUTHEAST OHIO

CITY           SKY/WX    TMP DP  RH WIND       PRES   REMARKS
COLUMBUS       FAIR       6  -7  54 NW13      30.44R WCI -10
OSU AIRPORT    FAIR       4  -7  60 NW9       30.43R WCI -10
BOLTON FIELD   CLEAR      3  -6  66 NW7       30.44R WCI  -9
RICKENBACK AFB FAIR       6  -4  62 NW10G17   30.45R WCI  -8
NEWARK         FAIR       5  -7  57 NW6       30.41R WCI  -6
MARION         FAIR       3  -9  57 NW6       30.41R WCI  -8
LANCASTER      FAIR       7  -5  57 NW7       30.44R WCI  -5
ZANESVILLE     FAIR       7  -9  48 NW7       30.40R WCI  -5
NEW PHILLY     FAIR       5  -4  66 W10       30.37R WCI -10
$$




USA.gov is the U.S. government's official web portal to all federal, state and local government web resources and services.